GW5607 Weather Reports


Display with metric or nautical units.
time (UTC)temp
F
wind
direction
speed
MPH
gust
MPH
rain 1hr
in
rain 24hr
in
rain mn
in
humidity
%
barometer
mb
20260906031304 82 169 0.0 0.0 0.00 0.00 0.00 81 1011.6
20260906030803 82 169 0.0 0.0 0.00 0.00 0.00 80 1011.6
20260906030259 82 169 0.0 0.0 0.00 0.00 0.00 81 1011.8
20260906025759 82 169 0.0 0.0 0.00 0.00 0.00 81 1011.8
20260906025253 83 168 0.0 0.0 0.00 0.00 0.00 80 1011.8
20260906024752 83 167 0.0 0.0 0.00 0.00 0.00 79 1011.7
20260906024251 83 167 0.0 0.0 0.00 0.00 0.00 79 1011.5
20260906023747 83 167 0.0 0.0 0.00 0.00 0.00 78 1011.5
20260906023242 83 167 0.0 0.0 0.00 0.00 0.00 78 1011.6
20260906022738 83 167 0.0 0.0 0.00 0.00 0.00 77 1011.4
20260906022233 83 165 0.0 0.0 0.00 0.00 0.00 78 1011.5
20260906021729 84 165 0.0 0.0 0.00 0.00 0.00 78 1011.3
20260906021227 84 165 0.0 0.0 0.00 0.00 0.00 79 1011.3
20260906020722 84 165 0.0 0.0 0.00 0.00 0.00 79 1011.1
20260906020217 84 165 0.0 0.0 0.00 0.00 0.00 78 1011.2
20260906015712 84 165 0.0 0.0 0.00 0.00 0.00 78 1011.0
20260906015210 84 166 0.0 0.0 0.00 0.00 0.00 78 1010.9
20260906014710 84 166 0.0 0.0 0.00 0.00 0.00 78 1011.0
20260906014207 84 166 0.0 0.0 0.00 0.00 0.00 78 1011.0
20260906013702 85 165 0.0 0.0 0.00 0.00 0.00 77 1010.8
20260906013157 85 162 0.0 0.0 0.00 0.00 0.00 75 1010.9
20260906012658 85 181 0.0 0.0 0.00 0.00 0.00 75 1010.7
20260906012157 86 161 0.0 0.0 0.00 0.00 0.00 75 1010.7
20260906011653 86 161 0.0 0.0 0.00 0.00 0.00 74 1010.8
20260906011148 86 165 0.0 0.0 0.00 0.00 0.00 73 1010.8
20260906010643 86 165 0.0 0.0 0.00 0.00 0.00 73 1010.8
20260906010139 87 165 0.0 0.0 0.00 0.00 0.00 72 1010.7
20260906005639 87 167 0.0 0.0 0.00 0.00 0.00 71 1010.6
20260906005138 87 167 0.0 0.0 0.00 0.00 0.00 69 1010.8
20260906004637 88 167 0.0 0.0 0.00 0.00 0.00 70 1010.6
20260906004132 88 167 0.0 0.0 0.00 0.00 0.00 70 1010.6
20260906003627 88 167 0.0 0.0 0.00 0.00 0.00 68 1010.6
20260906003123 89 166 0.0 0.0 0.00 0.00 0.00 66 1010.3
20260906002618 89 166 0.0 0.0 0.00 0.00 0.00 69 1010.5
20260906002113 90 166 0.0 0.0 0.00 0.00 0.00 68 1010.3
20260906001608 90 166 0.0 0.0 0.00 0.00 0.00 66 1010.5
20260906001102 91 166 0.0 0.0 0.00 0.00 0.00 65 1010.6
20260906000558 91 164 0.0 0.0 0.00 0.00 0.00 63 1010.8
20260906000053 92 165 0.0 0.0 0.00 0.00 0.00 63 1010.8
20260905235552 92 168 0.0 0.0 0.00 0.00 0.00 60 1010.8
20260905235048 93 168 0.0 0.0 0.00 0.00 0.00 60 1011.0
20260905234543 94 170 0.0 0.0 0.00 0.00 0.00 60 1011.0
20260905234038 95 166 0.0 0.0 0.00 0.00 0.00 59 1011.0
20260905233538 95 168 0.0 0.0 0.00 0.00 0.00 57 1011.0
20260905233038 96 169 0.0 0.0 0.00 0.00 0.00 55 1010.9
20260905232533 96 169 0.0 0.0 0.00 0.00 0.00 52 1011.1
20260905232029 97 170 0.0 0.0 0.00 0.00 0.00 50 1010.9
20260905231524 97 169 0.0 0.0 0.00 0.00 0.00 48 1011.0
20260905231021 97 174 0.0 0.0 0.00 0.00 0.00 48 1010.9
20260905230519 98 162 0.0 0.0 0.00 0.00 0.00 47 1010.8
20260905230018 100 162 1.0 1.0 0.00 0.00 0.00 44 1010.8
20260905225513 100 174 0.0 0.0 0.00 0.00 0.00 44 1010.9
20260905225008 101 169 0.0 1.0 0.00 0.00 0.00 41 1010.7
20260905224503 101 176 0.0 0.0 0.00 0.00 0.00 39 1010.8
20260905224002 100 174 0.0 0.0 0.00 0.00 0.00 41 1010.6
20260905223500 101 174 0.0 0.0 0.00 0.00 0.00 43 1010.8
20260905222955 102 176 0.0 1.0 0.00 0.00 0.00 41 1010.7
20260905222455 101 174 0.0 0.0 0.00 0.00 0.00 42 1010.6
20260905221950 100 159 0.0 0.0 0.00 0.00 0.00 41 1010.8
20260905221447 101 173 0.0 0.0 0.00 0.00 0.00 41 1010.8
20260905220943 101 178 0.0 0.0 0.00 0.00 0.00 42 1010.9
20260905220439 101 177 0.0 0.0 0.00 0.00 0.00 42 1011.0
20260905215938 102 183 1.0 1.0 0.00 0.00 0.00 42 1010.9
20260905215433 103 173 0.0 0.0 0.00 0.00 0.00 42 1010.9
20260905214930 103 172 0.0 0.0 0.00 0.00 0.00 44 1011.0
20260905214426 103 189 1.0 1.0 0.00 0.00 0.00 40 1010.9
20260905213925 103 177 0.0 0.0 0.00 0.00 0.00 41 1010.9
20260905213422 103 173 0.0 1.0 0.00 0.00 0.00 39 1010.9
20260905212917 103 178 0.0 0.0 0.00 0.00 0.00 39 1011.1
20260905212412 104 176 0.0 0.0 0.00 0.00 0.00 41 1011.0
20260905211911 103 178 0.0 0.0 0.00 0.00 0.00 40 1011.1
20260905211407 103 181 0.0 0.0 0.00 0.00 0.00 39 1011.0
20260905210903 104 176 0.0 1.0 0.00 0.00 0.00 38 1011.0
20260905210402 104 177 0.0 0.0 0.00 0.00 0.00 39 1011.2
20260905205902 104 178 0.0 0.0 0.00 0.00 0.00 40 1011.0
20260905205357 104 185 1.0 1.0 0.00 0.00 0.00 41 1011.1
20260905204855 103 182 0.0 0.0 0.00 0.00 0.00 38 1011.1
20260905204352 103 182 0.0 0.0 0.00 0.00 0.00 39 1011.4
20260905203850 103 179 0.0 0.0 0.00 0.00 0.00 38 1011.4
20260905203346 104 182 1.0 1.0 0.00 0.00 0.00 39 1011.4
20260905202842 103 177 0.0 0.0 0.00 0.00 0.00 38 1011.5
20260905202337 103 163 1.0 1.0 0.00 0.00 0.00 39 1011.6
20260905201833 104 182 1.0 1.0 0.00 0.00 0.00 38 1011.5
20260905201328 103 178 0.0 0.0 0.00 0.00 0.00 39 1011.7
20260905200828 103 158 0.0 1.0 0.00 0.00 0.00 37 1011.7
20260905200325 103 171 0.0 0.0 0.00 0.00 0.00 42 1012.0
20260905195821 103 172 1.0 2.0 0.00 0.00 0.00 41 1012.0
20260905195317 102 178 0.0 1.0 0.00 0.00 0.00 40 1012.0
20260905194813 101 189 0.0 1.0 0.00 0.00 0.00 40 1012.2
20260905194312 100 198 2.0 2.0 0.00 0.00 0.00 41 1012.2
20260905193812 101 109 4.0 4.0 0.00 0.00 0.00 40 1012.4
20260905193307 102 163 1.0 1.0 0.00 0.00 0.00 44 1012.4
20260905192802 102 175 1.0 1.0 0.00 0.00 0.00 40 1012.6
20260905192258 101 148 1.0 1.0 0.00 0.00 0.00 41 1012.6
20260905191757 102 212 2.0 2.0 0.00 0.00 0.00 38 1012.7
20260905191256 101 176 0.0 0.0 0.00 0.00 0.00 42 1012.7
20260905190755 101 170 1.0 1.0 0.00 0.00 0.00 40 1012.8
20260905190254 102 174 1.0 1.0 0.00 0.00 0.00 40 1012.7
20260905185753 101 181 1.0 1.0 0.00 0.00 0.00 43 1012.9
20260905185249 101 199 2.0 3.0 0.00 0.00 0.00 42 1013.1
20260905184748 101 156 1.0 1.0 0.00 0.00 0.00 42 1013.0
20260905184247 101 171 0.0 1.0 0.00 0.00 0.00 41 1013.0
20260905183741 101 168 1.0 1.0 0.00 0.00 0.00 41 1013.2
20260905183237 100 186 1.0 1.0 0.00 0.00 0.00 40 1013.1
20260905182736 100 31 1.0 2.0 0.00 0.00 0.00 41 1013.0
20260905182236 100 145 2.0 2.0 0.00 0.00 0.00 40 1013.1
20260905181731 100 140 1.0 1.0 0.00 0.00 0.00 42 1013.1
20260905181230 100 97 0.0 0.0 0.00 0.00 0.00 44 1013.0
20260905180725 100 184 0.0 0.0 0.00 0.00 0.00 42 1013.3
20260905180220 101 208 2.0 2.0 0.00 0.00 0.00 41 1013.5
20260905175720 100 177 0.0 1.0 0.00 0.00 0.00 40 1013.2
20260905175215 100 182 0.0 1.0 0.00 0.00 0.00 43 1013.3
20260905174710 100 175 1.0 1.0 0.00 0.00 0.00 41 1013.5
20260905174206 100 179 1.0 1.0 0.00 0.00 0.00 43 1013.5
20260905173702 100 176 1.0 1.0 0.00 0.00 0.00 46 1013.4
20260905173157 101 169 1.0 1.0 0.00 0.00 0.00 43 1013.6
20260905172657 101 175 0.0 0.0 0.00 0.00 0.00 42 1013.6
20260905172151 100 174 0.0 0.0 0.00 0.00 0.00 43 1013.7
20260905171647 100 160 0.0 0.0 0.00 0.00 0.00 43 1013.7
20260905171143 99 164 1.0 1.0 0.00 0.00 0.00 44 1013.8
20260905170640 99 177 0.0 1.0 0.00 0.00 0.00 45 1013.9
20260905170134 100 153 2.0 3.0 0.00 0.00 0.00 46 1013.9
20260905165628 99 166 0.0 1.0 0.00 0.00 0.00 48 1014.1
20260905165124 98 242 1.0 2.0 0.00 0.00 0.00 47 1014.1
20260905164619 98 129 1.0 2.0 0.00 0.00 0.00 50 1014.1
20260905164118 98 176 0.0 0.0 0.00 0.00 0.00 50 1014.0
20260905163615 98 172 0.0 1.0 0.00 0.00 0.00 49 1014.3
20260905163111 97 83 1.0 1.0 0.00 0.00 0.00 48 1014.3
20260905162607 98 24 2.0 2.0 0.00 0.00 0.00 49 1014.1
20260905162106 97 182 1.0 1.0 0.00 0.00 0.00 49 1014.3
20260905161606 97 180 2.0 2.0 0.00 0.00 0.00 50 1014.4
20260905161104 97 169 0.0 1.0 0.00 0.00 0.00 50 1014.2
20260905160603 97 171 0.0 1.0 0.00 0.00 0.00 50 1014.4
20260905155557 96 143 1.0 1.0 0.00 0.00 0.00 54 1014.5
20260905155055 96 169 0.0 0.0 0.00 0.00 0.00 54 1014.6
20260905154551 96 134 0.0 1.0 0.00 0.00 0.00 55 1014.4
20260905154046 95 167 1.0 1.0 0.00 0.00 0.00 56 1014.4
20260905153542 95 162 1.0 1.0 0.00 0.00 0.00 57 1014.4
20260905153042 94 139 1.0 1.0 0.00 0.00 0.00 58 1014.6
20260905152537 94 161 1.0 1.0 0.00 0.00 0.00 57 1014.4
20260905152032 94 161 1.0 1.0 0.00 0.00 0.00 57 1014.5
20260905151527 94 174 2.0 2.0 0.00 0.00 0.00 57 1014.5
20260905151022 94 163 0.0 0.0 0.00 0.00 0.00 58 1014.4
20260905150517 93 161 1.0 1.0 0.00 0.00 0.00 58 1014.4
20260905150016 93 171 0.0 0.0 0.00 0.00 0.00 61 1014.4
20260905145515 93 156 2.0 2.0 0.00 0.00 0.00 59 1014.4
20260905145014 91 165 0.0 1.0 0.00 0.00 0.00 62 1014.5
20260905144510 91 190 1.0 2.0 0.00 0.00 0.00 62 1014.5
20260905144008 90 169 0.0 0.0 0.00 0.00 0.00 63 1014.3
20260905143508 89 172 1.0 1.0 0.00 0.00 0.00 65 1014.4
20260905143003 89 173 1.0 1.0 0.00 0.00 0.00 66 1014.5
20260905142501 89 157 0.0 1.0 0.00 0.00 0.00 68 1014.5
20260905141957 88 171 0.0 0.0 0.00 0.00 0.00 67 1014.5
20260905141451 87 169 0.0 0.0 0.00 0.00 0.00 68 1014.3
20260905140948 87 184 1.0 1.0 0.00 0.00 0.00 68 1014.2
20260905140443 86 176 0.0 1.0 0.00 0.00 0.00 69 1014.3
20260905135941 86 178 0.0 1.0 0.00 0.00 0.00 71 1014.2
20260905135437 86 172 0.0 0.0 0.00 0.00 0.00 73 1014.3
20260905134933 85 174 0.0 0.0 0.00 0.00 0.00 73 1014.3
20260905134432 85 173 0.0 0.0 0.00 0.00 0.00 74 1014.2
20260905133932 85 173 0.0 0.0 0.00 0.00 0.00 73 1014.5
20260905133431 85 173 0.0 0.0 0.00 0.00 0.00 74 1014.1
20260905132932 84 174 0.0 0.0 0.00 0.00 0.00 72 1014.1
20260905132427 84 175 0.0 0.0 0.00 0.00 0.00 73 1014.3
20260905131922 83 174 0.0 0.0 0.00 0.00 0.00 74 1014.1
20260905131418 82 176 0.0 0.0 0.00 0.00 0.00 76 1013.9
20260905130918 81 172 0.0 0.0 0.00 0.00 0.00 79 1014.0
20260905130418 81 168 0.0 0.0 0.00 0.00 0.00 81 1014.0
20260905125917 80 168 0.0 0.0 0.00 0.00 0.00 84 1013.8
20260905125413 79 168 0.0 0.0 0.00 0.00 0.00 84 1014.0
20260905124908 79 168 0.0 0.0 0.00 0.00 0.00 85 1013.9
20260905124405 78 173 0.0 0.0 0.00 0.00 0.00 86 1013.9
20260905123904 78 173 0.0 0.0 0.00 0.00 0.00 86 1013.9
20260905123401 77 173 0.0 0.0 0.00 0.00 0.00 87 1013.9
20260905122856 77 173 0.0 0.0 0.00 0.00 0.00 87 1014.0
20260905122355 77 173 0.0 0.0 0.00 0.00 0.00 87 1013.9
20260905121851 77 175 0.0 0.0 0.00 0.00 0.00 87 1014.0
20260905121347 77 177 0.0 0.0 0.00 0.00 0.00 86 1013.9
20260905120845 77 167 0.0 0.0 0.00 0.00 0.00 86 1013.7
20260905120340 77 165 0.0 0.0 0.00 0.00 0.00 86 1013.6
20260905115835 77 164 0.0 0.0 0.00 0.00 0.00 86 1013.6
20260905115335 77 161 0.0 0.0 0.00 0.00 0.00 87 1013.8
20260905114835 76 166 0.0 0.0 0.00 0.00 0.00 87 1013.7
20260905114334 76 167 0.0 0.0 0.00 0.00 0.00 88 1013.6
20260905113833 76 164 0.0 0.0 0.00 0.00 0.00 89 1013.6
20260905113329 76 161 0.0 0.0 0.00 0.00 0.00 88 1013.8
20260905112825 77 165 0.0 0.0 0.00 0.00 0.00 88 1013.6
20260905112319 77 165 0.0 0.0 0.00 0.00 0.00 87 1013.5
20260905111815 77 163 0.0 0.0 0.00 0.00 0.00 87 1013.4
20260905111309 77 164 0.0 0.0 0.00 0.00 0.00 86 1013.4
20260905110808 77 164 0.0 0.0 0.00 0.00 0.00 85 1013.4
20260905110302 77 163 0.0 0.0 0.00 0.00 0.00 84 1013.4
20260905105758 77 164 0.0 0.0 0.00 0.00 0.00 83 1013.2
20260905105257 77 164 0.0 0.0 0.00 0.00 0.00 84 1013.1
20260905104751 77 164 0.0 0.0 0.00 0.00 0.00 84 1013.1
20260905104248 77 164 0.0 0.0 0.00 0.00 0.00 84 1013.0
20260905103747 78 166 0.0 0.0 0.00 0.00 0.00 83 1013.1
20260905103243 78 167 0.0 0.0 0.00 0.00 0.00 82 1013.3
20260905102738 78 168 0.0 0.0 0.00 0.00 0.00 82 1013.2
20260905102235 78 168 0.0 0.0 0.00 0.00 0.00 83 1013.3
20260905101734 78 168 0.0 0.0 0.00 0.00 0.00 81 1013.1
20260905101232 78 167 0.0 0.0 0.00 0.00 0.00 81 1013.2
20260905100728 79 167 0.0 0.0 0.00 0.00 0.00 82 1013.2
20260905100224 79 167 0.0 0.0 0.00 0.00 0.00 81 1013.1
20260905095724 79 167 0.0 0.0 0.00 0.00 0.00 80 1013.1
20260905095223 80 167 0.0 0.0 0.00 0.00 0.00 78 1013.2
20260905094718 80 174 0.0 0.0 0.00 0.00 0.00 78 1013.3
20260905094218 80 175 0.0 0.0 0.00 0.00 0.00 78 1013.1
20260905093713 80 173 0.0 0.0 0.00 0.00 0.00 77 1013.1
20260905093209 80 172 0.0 0.0 0.00 0.00 0.00 78 1013.2
20260905092704 80 169 0.0 0.0 0.00 0.00 0.00 78 1013.4
20260905092200 80 171 0.0 0.0 0.00 0.00 0.00 79 1013.3
20260905091659 79 172 0.0 0.0 0.00 0.00 0.00 79 1013.1
20260905091200 79 172 0.0 0.0 0.00 0.00 0.00 80 1013.2
20260905090659 78 172 0.0 0.0 0.00 0.00 0.00 81 1013.1
20260905090155 78 169 0.0 0.0 0.00 0.00 0.00 83 1013.0
20260905085653 78 168 0.0 0.0 0.00 0.00 0.00 85 1013.2
20260905085149 78 171 0.0 0.0 0.00 0.00 0.00 85 1013.3
20260905084648 78 171 0.0 0.0 0.00 0.00 0.00 84 1013.1
20260905084144 78 170 0.0 0.0 0.00 0.00 0.00 84 1013.1
20260905083644 78 171 0.0 0.0 0.00 0.00 0.00 84 1013.1
20260905083140 78 167 0.0 0.0 0.00 0.00 0.00 84 1013.2
20260905082636 78 166 0.0 0.0 0.00 0.00 0.00 85 1013.1
20260905082131 78 170 0.0 0.0 0.00 0.00 0.00 85 1013.3
20260905081631 78 170 0.0 0.0 0.00 0.00 0.00 86 1013.2
20260905081132 78 170 0.0 0.0 0.00 0.00 0.00 86 1013.1
20260905080626 78 170 0.0 0.0 0.00 0.00 0.00 86 1013.3
20260905080121 78 170 0.0 0.0 0.00 0.00 0.00 85 1013.3
20260905075620 78 170 0.0 0.0 0.00 0.00 0.00 85 1013.2
20260905075120 78 168 0.0 0.0 0.00 0.00 0.00 86 1013.2
20260905074619 77 168 0.0 0.0 0.00 0.00 0.00 87 1013.2
20260905074115 77 168 0.0 0.0 0.00 0.00 0.00 87 1013.2
20260905073610 77 165 0.0 0.0 0.00 0.00 0.00 88 1013.3
20260905073106 77 165 0.0 0.0 0.00 0.00 0.00 88 1013.2
20260905072605 77 165 0.0 0.0 0.00 0.00 0.00 88 1013.4
20260905072100 77 165 0.0 0.0 0.00 0.00 0.00 88 1013.3
20260905071557 77 165 0.0 0.0 0.00 0.00 0.00 88 1013.2
20260905071057 78 165 0.0 0.0 0.00 0.00 0.00 88 1013.3
20260905070552 78 165 0.0 0.0 0.00 0.00 0.00 88 1013.2
20260905070048 78 165 0.0 0.0 0.00 0.00 0.00 87 1013.0
20260905065546 78 165 0.0 0.0 0.00 0.00 0.00 87 1013.3
20260905065041 78 165 0.0 0.0 0.00 0.00 0.00 87 1013.2
20260905064542 78 165 0.0 0.0 0.00 0.00 0.00 86 1013.5
20260905064037 78 163 0.0 0.0 0.00 0.00 0.00 86 1013.3
20260905063536 79 163 0.0 0.0 0.00 0.00 0.00 85 1013.3
20260905063032 79 166 0.0 0.0 0.00 0.00 0.00 85 1013.6
20260905062533 79 170 0.0 0.0 0.00 0.00 0.00 84 1013.4
20260905062033 79 170 0.0 0.0 0.00 0.00 0.00 84 1013.5
20260905061528 79 170 0.0 0.0 0.00 0.00 0.00 84 1013.5
20260905061027 79 170 0.0 0.0 0.00 0.00 0.00 84 1013.6
20260905060523 80 175 0.0 0.0 0.00 0.00 0.00 84 1013.5
20260905060019 79 171 0.0 0.0 0.00 0.00 0.00 84 1013.5
20260905055517 80 167 0.0 0.0 0.00 0.00 0.00 84 1013.4
20260905055012 80 167 0.0 0.0 0.00 0.00 0.00 83 1013.6
20260905054508 80 167 0.0 0.0 0.00 0.00 0.00 83 1013.6
20260905054003 80 166 0.0 0.0 0.00 0.00 0.00 82 1013.6
20260905053457 80 166 0.0 0.0 0.00 0.00 0.00 82 1013.6
20260905052953 80 169 0.0 0.0 0.00 0.00 0.00 82 1013.5
20260905052452 80 174 0.0 0.0 0.00 0.00 0.00 82 1013.7
20260905051952 81 169 0.0 0.0 0.00 0.00 0.00 82 1013.5
20260905051447 81 169 0.0 0.0 0.00 0.00 0.00 81 1013.3
20260905050945 81 169 0.0 0.0 0.00 0.00 0.00 80 1013.5
20260905050440 82 169 0.0 0.0 0.00 0.00 0.00 78 1013.6
20260905045936 82 169 0.0 0.0 0.00 0.00 0.00 77 1013.5
20260905045431 83 169 0.0 0.0 0.00 0.00 0.00 74 1013.6
20260905044927 83 169 0.0 0.0 0.00 0.00 0.00 74 1013.6
20260905044421 83 168 0.0 0.0 0.00 0.00 0.00 73 1013.5
20260905043921 83 164 0.0 1.0 0.00 0.00 0.00 73 1013.7
20260905043420 83 164 0.0 0.0 0.00 0.00 0.00 74 1013.8
20260905042915 82 166 0.0 0.0 0.00 0.00 0.00 75 1013.7
20260905042410 82 164 0.0 0.0 0.00 0.00 0.00 77 1013.9
20260905041905 82 164 0.0 0.0 0.00 0.00 0.00 77 1013.8
20260905041401 83 167 0.0 0.0 0.00 0.00 0.00 76 1013.9
20260905040901 83 166 0.0 0.0 0.00 0.00 0.00 75 1013.9
20260905040401 84 163 0.0 0.0 0.00 0.00 0.00 74 1013.8
20260905035900 84 164 0.0 0.0 0.00 0.00 0.00 72 1014.0
20260905035355 85 160 0.0 1.0 0.00 0.00 0.00 71 1013.8
20260905034852 85 163 0.0 0.0 0.00 0.00 0.00 69 1013.8
20260905034347 85 141 1.0 1.0 0.00 0.00 0.00 69 1013.6
20260905033845 84 134 1.0 1.0 0.00 0.00 0.00 70 1013.8
20260905033341 84 159 1.0 1.0 0.00 0.00 0.00 73 1014.1
20260905032840 84 163 0.0 0.0 0.00 0.00 0.00 72 1013.6
20260905032336 85 162 0.0 0.0 0.00 0.00 0.00 69 1013.8
20260905031831 86 165 0.0 0.0 0.00 0.00 0.00 67 1013.9